Location: Unspecified
(0.0000°N, 0.0000°E)
Time: 02:52:49
(UTC+00:00)

Vanguard 2 Rocket - Pass Details

Date: 26 October 2025
Orbit: 554 x 3288 km, 32.9° (Epoch: 06 November)

Event Time Altitude Azimuth Distance (km) Brightness Sun altitude
Rises 22:26:26 0° 286° (WNW) 4,065 - -66.9°
Reaches altitude 10° 22:29:59 10° 305° (NW) 3,506 - -67.7°
Maximum altitude 22:36:08 19° 346° (NNW) 3,518 - -68.9°
Drops below altitude 10° 22:44:39 10° 25° (NNE) 5,019 - -70.5°
Sets 22:51:30 0° 41° (NE) 6,565 - -71.8°
